Regional Weather Roundup
Issued by NWS

Home | Current Version | Previous Version | Graphics & Text | Print | Product List | Glossary On
Versions: 1 2 3 4 5 6 7 8 9 10 11 12 13 14 15 16 17 18 19 20 21 22 23 24 25 26 27 28 29 30 31 32 33 34 35 36 37 38 39 40 41 42 43 44 45 46 47 48
000
ASUS45 KBOU 262307
RWRCO

WEATHER ROUNDUP FOR COLORADO
NATIONAL WEATHER SERVICE DENVER/BOULDER CO
400 PM MST FRI DEC 26 2014

NOTE: "FAIR" INDICATES FEW OR NO CLOUDS BELOW 12000 FEET WITH NO
SIGNIFICANT WEATHER AND/OR OBSTRUCTIONS TO VISIBILITY.

COZ001>005-013-030-031-270000-
...NORTHWEST COLORADO...

CITY           SKY/WX    TMP DP  RH WIND       PRES   REMARKS
CRAIG          LGT SNOW  17  12  80 W13       29.89R WCI   4
HAYDEN         PTCLDY    16  10  79 W13       29.86R WCI   2
MEEKER         LGT SNOW  18  13  80 SW10      29.89R WCI   6
MOUNT WERNER   NOT AVBL
STEAMBOAT SPGS CLOUDY    15  11  83 CALM      29.84R
WALDEN         CLOUDY    10   5  79 NW6       29.77R WCI   1
$$

COZ006>008-011-270000-
...WEST CENTRAL VALLEYS...

CITY           SKY/WX    TMP DP  RH WIND       PRES   REMARKS
GRAND JUNCTION CLOUDY    26  20  77 N3        29.92R
MONTROSE       CLOUDY    26  18  71 NW10      29.88R WCI  16
EAGLE          FLURRIES  25  19  80 W12G17    29.80R WCI  14
RIFLE          CLOUDY    24  12  60 W18       29.89R WCI  10
DELTA          MOCLDY    34  20  56 W14       29.85R WCI  25
NUCLA          CLOUDY    27  18  69 W14       29.91R WCI  15
$$

COZ017>023-064>068-270000-
...SOUTHWEST COLORADO...

CITY           SKY/WX    TMP DP  RH WIND       PRES   REMARKS
DURANGO        MIX PCPN  24  16  71 SW20G26   29.81R WCI  10
CORTEZ         CLOUDY    26  21  81 W6        29.88R WCI  19
PAGOSA SPRINGS LGT SNOW  22  19  87 SW12      29.78R WCI  11
TELLURIDE      LGT SNOW  17   9  72 W10       29.77R WCI   4
WOLF CREEK PAS   N/A      5   3  92 MISG      29.64R
$$

COZ009-010-012-014-032>034-037-058>063-270000-
...CENTRAL COLORADO...

CITY           SKY/WX    TMP DP  RH WIND       PRES   REMARKS
ASPEN          LGT SNOW  19  13  77 NW9       29.75R WCI   8
BUENA VISTA    CLOUDY    13   9  83 SE7       29.79R WCI   3
COPPER MTN     LGT SNOW   9   3  78 MISG      29.62R
BERTHOUD PASS  SNOW       0  -6  78 MISG      29.61R VSB 1/2
COTTONWOOD PAS CLOUDY    12   9  85 CALM      29.71R
GUNNISON       PTCLDY    16  12  86 NE5       29.79R WCI   9
KREMMLING      CLOUDY    18   9  68 NW9       29.79R WCI   6
LEADVILLE      CLOUDY     6   2  83 S10       29.68R WCI  -9
SALIDA         CLOUDY    16  12  84 E3        29.88R
SUNLIGHT       SNOW     N/A N/A N/A W3        29.71R VSB 1/2
WILKERSON PASS MOCLDY     5   1  85 CALM      29.68R
$$

COZ069>075-270000-
...SAN LUIS VALLEY/SANGRE DE CRISTO MOUNTAINS...

CITY           SKY/WX    TMP DP  RH WIND       PRES   REMARKS
ALAMOSA        CLOUDY    22  13  68 E9        29.72R WCI  12
LA VETA PASS   NOT AVBL
SAGUACHE       LGT SNOW  19  18  93 CALM      29.75R VSB 1
$$

COZ035-036-038>040-270000-
...NORTHERN COLORADO FRONT RANGE...

CITY           SKY/WX    TMP DP  RH WIND       PRES   REMARKS
DENVER INTL AP LGT SNOW  16  12  84 N7        29.94R FOG     WCI   6
DMNS CITY PARK   N/A     17  12  81 NE5       29.94S WCI  10
AURORA         FLURRIES  15  11  84 N6        29.93R WCI   7
FRONT RANGE AP LGT SNOW  19  16  86 NW3       29.94R
ERIE MUNI ARPT   N/A     18  14  84 NE3       29.96R FOG
BOULDER MUN AP LGT SNOW  19  18  93 NE3       29.95R
CENTENNIAL     MOCLDY    15  10  80 N8        29.91R FOG     WCI   4
BROOMFIELD     CLOUDY    18  12  79 NE6       29.93R WCI   9
FORT COLLINS   MOCLDY    18  12  79 E5        29.98R WCI  11
LONGMONT       LGT SNOW  21  16  81 E3        29.99R
$$

COZ041-046-047-076>085-087-088-270000-
...PIKES PEAK/PALMER DIVIDE AND SOUTHERN FOOTHILLS...

CITY           SKY/WX    TMP DP  RH WIND       PRES   REMARKS
COLO. SPRINGS  CLOUDY    20   7  57 N10       29.88R WCI   9
A. F. ACADEMY  FLURRIES  17   8  68 N8        29.86R WCI   6
ELLICOTT       NOT AVBL
FALCON         MOCLDY    16   8  72 N10       29.85R WCI   3
FORT CARSON    FLURRIES  21  14  73 S8        29.88R WCI  12
LIMON          CLOUDY    13   9  84 N9        29.92R WCI   1
MONUMENT HILL  LGT SNOW  10   9  92 N7        29.84R WCI   0
TRINIDAD       MOCLDY    17  13  84 E3        29.91R
$$

COZ042>045-048>051-090-091-270000-
...NORTHEAST COLORADO...

CITY           SKY/WX    TMP DP  RH WIND       PRES   REMARKS
GREELEY ARPT   MOCLDY    18  10  73 NE3       29.99R
AKRON          LGT SNOW  16  14  92 N12       29.96S FOG     WCI   3
BURLINGTON     CLOUDY    20  15  81 N8        29.96R HAZE    WCI  10
WRAY           LGT SNOW  22  19  89 N9        30.01R WCI  11
STERLING       LGT SNOW  21  19  93 N10       30.01R WCI  10
HOLYOKE        LGT SNOW  21  18  86 N17       30.00F WCI   7
FORT MORGAN    LGT SNOW  17  14  85 N8        30.00R WCI   7
$$

COZ086-089-092>099-270000-
...SOUTHEAST COLORADO...

CITY           SKY/WX    TMP DP  RH WIND       PRES   REMARKS
PUEBLO         CLOUDY    24  19  81 S12       29.94R WCI  13
LA JUNTA       MOCLDY    24  14  65 N12       29.98R WCI  13
LAMAR          CLOUDY    25  18  74 N9        29.97R WCI  15
SPRINGFIELD      N/A     22  18  85 N10       29.94R WCI  11
$$



USA.gov is the U.S. government's official web portal to all federal, state and local government web resources and services.